Wind_Speed
0 0 1 2 2 2 2 2 2 3 4 5 5 6 6 7 7 7 7 7 7 7 7 8 7 7 7 6 6 7 7 7 7 7 6 5 5 4 4 5 6 6 7
2 1 1 1 2 1 1 0 1 3 4 4 5 6 6 7 8 8 8 8 8 8 8 8 8 8 7 7 6 6 6 6 6 6 5 4 4 4 4 5 5 5 6
3 2 2 2 2 1 1 1 2 3 4 5 5 6 7 8 8 9 9 9 9 9 9 9 9 9 8 7 7 6 6 6 5 5 5 4 3 3 3 4 4 5 6
3 3 3 2 2 2 2 2 2 3 4 5 6 7 8 8 9 10 10 10 10 10 11 11 10 10 9 8 8 7 6 6 5 5 4 3 2 2 2 3 4 5 6
3 3 3 3 3 2 2 2 3 4 4 5 6 7 8 9 10 11 11 11 12 12 12 12 11 11 10 10 9 8 7 6 6 5 4 3 2 0 1 2 3 4 5
3 3 3 3 2 2 3 3 4 4 5 6 7 9 10 10 11 12 12 13 13 13 13 13 13 12 12 11 10 10 9 8 7 6 5 4 3 2 2 2 3 4 5
3 3 3 3 3 3 3 4 5 6 7 8 9 10 11 12 12 13 14 14 14 14 14 15 14 14 13 12 12 11 10 10 9 7 7 6 5 5 4 4 4 4 5
4 3 3 3 4 4 5 6 7 8 9 10 11 12 13 14 14 15 16 15 15 16 16 16 17 16 15 14 13 13 12 11 10 10 9 8 8 8 7 6 6 6 6
4 3 3 4 5 6 7 8 9 10 11 12 14 15 15 15 16 17 17 18 18 18 18 18 18 18 18 17 16 15 15 13 12 12 12 10 10 10 10 9 8 8 8
4 4 5 6 7 8 8 9 10 11 13 14 15 16 16 17 18 19 19 19 19 20 20 20 20 20 20 19 18 18 17 16 14 14 14 13 13 13 12 12 11 10 10
5 6 7 8 9 9 10 11 12 13 14 15 16 16 17 17 18 19 19 19 20 21 20 20 20 20 20 20 21 20 19 18 16 16 16 15 15 14 14 14 14 13 12
6 6 8 9 10 11 11 12 13 13 14 15 15 16 16 16 17 17 17 18 19 19 19 19 19 19 20 20 21 21 21 20 18 18 18 18 17 16 16 16 15 15 15
6 7 9 10 11 12 12 13 13 13 14 14 15 15 15 15 16 16 16 16 18 18 18 18 18 19 19 20 21 21 22 22 20 19 20 19 19 17 18 18 17 17 17
8 9 10 11 11 12 13 13 12 12 13 14 15 15 15 15 14 14 14 15 16 16 16 17 17 19 20 20 21 21 21 22 21 21 21 21 20 19 18 19 19 19 19
9 10 10 11 12 12 12 12 11 12 13 13 13 13 13 13 13 13 14 15 15 15 14 14 16 17 18 20 21 21 21 21 21 21 21 20 19 19 20 20 21 20 21
8 9 10 10 10 10 10 10 10 11 12 12 13 14 14 13 13 14 14 15 14 14 14 15 16 16 17 18 19 19 20 21 21 21 20 20 19 19 20 20 21 21 21
8 8 9 9 8 8 8 9 10 10 11 12 12 13 13 14 14 14 15 15 15 15 16 16 16 17 17 17 18 19 20 21 21 20 20 20 20 20 20 21 21 21 22
7 7 8 8 8 8 8 8 9 9 10 10 11 12 13 14 14 14 15 15 15 16 16 16 16 17 17 17 18 19 20 20 21 21 21 21 21 22 21 22 22 23 23
7 7 7 7 7 8 7 7 8 7 8 10 11 12 12 13 13 14 14 14 15 15 15 15 15 16 16 17 18 18 19 20 21 21 22 22 22 22 22 23 23 23 24
6 6 6 6 6 7 7 7 7 7 8 10 11 12 12 12 13 13 14 14 14 14 14 15 15 15 16 16 17 18 19 20 21 22 22 23 23 23 23 24 25 25 25
7 6 6 5 5 6 6 6 7 7 8 9 10 11 12 12 12 13 13 13 13 13 14 14 14 15 15 16 17 18 19 20 21 21 22 23 24 24 25 25 26 26 27
5 5 3 3 4 5 5 6 6 7 8 8 9 10 11 11 11 12 13 13 13 13 13 13 14 15 15 15 16 17 18 19 20 21 22 23 24 25 26 26 27 27 27
3 3 3 3 4 4 5 6 6 7 8 8 9 9 10 10 11 12 13 13 13 13 14 14 15 16 16 16 16 17 18 19 20 21 22 23 24 25 26 27 28 28 29
2 2 2 3 4 4 5 5 6 7 8 9 9 10 10 11 12 13 14 14 14 14 15 15 16 16 17 17 17 17 18 19 20 21 22 23 24 25 26 27 28 29 30
2 2 3 3 3 4 4 5 6 7 8 9 10 11 11 12 13 14 15 15 16 16 16 17 17 18 19 19 20 20 20 21 21 22 23 24 24 25 26 28 29 30 31
2 2 3 3 3 4 4 5 7 8 9 10 10 11 12 13 14 15 16 16 17 18 18 19 19 20 21 21 22 23 23 23 24 24 25 26 26 26 27 28 30 31 32
Wind_Direction
220 152 127 109 102 100 85 49 17 360 350 344 340 339 338 336 334 334 336 337 339 341 342 344 347 351 357 5 13 19 24 28 30 34 41 52 64 78 93 107 114 121 127
222 209 177 163 153 147 128 14 338 334 331 327 325 326 326 325 323 322 323 324 325 328 329 329 330 334 339 345 355 3 10 17 22 25 35 43 54 70 96 113 118 126 132
213 198 191 195 199 198 209 271 295 305 312 314 313 314 316 318 317 317 316 315 316 318 319 319 318 319 322 325 331 340 349 359 6 13 20 31 41 63 97 118 122 131 134
215 206 206 212 217 214 228 259 280 292 300 302 304 305 307 309 310 311 311 308 307 308 309 311 310 309 309 311 313 318 325 334 341 348 356 7 24 54 92 124 129 135 140
213 211 215 220 224 223 231 250 271 284 290 291 293 296 299 301 303 303 304 304 300 300 302 303 303 302 301 300 301 303 305 311 315 319 323 327 336 53 121 138 144 147 150
221 215 216 220 231 238 245 256 270 283 289 291 292 294 297 300 301 301 301 299 297 295 296 298 297 296 294 293 292 293 291 293 295 297 297 288 279 247 199 182 176 170 166
224 221 233 242 250 258 261 268 274 281 288 291 292 294 296 298 298 297 296 295 293 292 293 293 292 292 290 289 288 288 286 283 282 282 279 273 266 254 236 213 200 192 184
230 235 255 264 273 276 276 277 280 283 287 290 291 293 293 293 292 291 291 290 289 290 290 290 288 286 285 285 285 285 284 282 279 275 271 267 262 255 245 231 214 204 197
233 249 269 278 283 283 282 281 284 286 289 290 291 291 291 289 288 287 286 285 284 285 286 285 284 281 279 279 280 281 280 278 276 272 269 267 261 252 245 237 225 213 204
244 264 272 278 283 283 283 283 284 286 287 287 289 289 288 288 288 286 283 282 281 281 280 279 279 276 273 273 276 278 277 274 270 270 268 265 260 249 241 236 230 222 211
246 262 270 277 283 285 283 282 282 284 285 286 287 288 288 286 286 286 284 281 279 279 280 278 276 272 269 270 273 276 275 273 268 266 265 264 259 249 240 237 233 225 218
237 261 277 283 285 284 281 281 282 285 285 286 286 288 288 287 286 286 287 283 283 282 280 277 274 271 269 269 271 273 273 272 268 265 262 260 257 250 241 236 233 228 223
246 267 277 281 282 281 282 283 285 286 286 285 287 289 289 288 286 286 289 286 285 285 280 275 271 270 270 270 272 273 271 271 268 265 262 260 255 249 244 238 235 231 226
248 266 276 277 277 278 280 281 282 286 286 287 288 291 292 292 288 289 289 288 288 287 281 275 273 270 270 269 270 272 271 267 265 265 263 259 253 250 246 242 237 234 228
251 262 268 272 274 276 277 277 276 281 287 290 289 291 294 296 292 291 290 290 289 287 282 279 275 275 273 270 268 269 269 266 265 265 264 259 256 252 249 247 240 235 230
252 262 268 273 276 278 276 277 277 282 287 291 292 292 294 295 293 292 292 293 292 289 285 282 279 277 275 271 268 266 264 264 266 267 264 257 257 256 250 248 243 236 232
248 259 269 279 282 285 286 288 291 291 293 297 297 298 298 297 297 297 296 296 294 292 288 285 281 279 276 273 268 265 265 265 264 263 261 257 256 256 253 248 243 239 238
245 258 273 284 289 294 294 299 303 300 299 302 301 301 301 302 303 301 299 298 297 295 292 288 283 280 277 275 271 268 267 267 265 262 260 257 255 254 252 250 246 244 242
249 261 274 286 291 298 297 308 314 311 307 305 304 305 306 305 305 303 302 300 299 297 296 293 289 284 281 278 274 271 268 266 264 262 259 258 256 254 252 249 248 245 243
243 254 263 281 291 299 307 312 316 316 314 310 309 309 308 308 308 307 306 304 302 301 300 297 294 290 286 282 278 274 270 267 264 262 260 258 257 254 252 251 249 247 245
235 243 260 273 294 302 310 316 318 319 318 317 315 314 313 314 313 312 312 311 310 307 303 300 297 295 291 287 282 278 273 270 267 264 262 259 257 255 253 252 251 248 246
220 238 266 287 298 300 306 315 320 324 325 323 322 320 319 318 318 317 317 316 315 312 310 306 304 301 297 292 287 283 278 274 270 267 263 261 258 256 254 253 252 249 247
211 239 276 294 299 302 312 318 323 329 329 328 328 328 327 326 326 324 323 320 317 314 312 309 306 304 301 296 291 286 283 279 274 270 267 264 261 258 256 254 252 250 248
214 251 285 303 303 307 312 319 328 334 335 336 337 338 338 335 331 328 326 324 322 319 315 310 307 304 301 298 293 289 286 284 281 277 271 267 264 260 257 254 252 250 248
244 274 300 306 298 302 310 321 334 338 339 340 341 340 339 337 334 330 328 325 323 321 318 313 308 305 302 298 295 291 288 286 283 280 277 272 267 263 259 256 253 250 247
250 271 288 286 287 296 313 327 334 337 339 341 341 341 339 337 335 332 331 329 326 322 319 315 311 308 304 300 296 293 290 287 284 281 278 274 270 266 262 259 255 252 249
Height
5914 5914 5914 5914 5915 5915 5916 5916 5916 5916 5916 5915 5915 5915 5914 5914 5913 5913 5912 5911 5911 5910 5909 5909 5908 5908 5908 5907 5906 5906 5905 5904 5903 5902 5902 5901 5901 5900 5900 5900 5900 5900 5900
5914 5914 5914 5914 5914 5915 5915 5916 5916 5915 5915 5915 5915 5914 5914 5913 5913 5912 5912 5911 5910 5910 5909 5909 5908 5908 5907 5907 5906 5906 5905 5905 5904 5903 5902 5902 5901 5901 5900 5900 5900 5900 5901
5913 5913 5913 5914 5914 5914 5915 5915 5915 5915 5915 5915 5914 5914 5913 5913 5912 5912 5911 5910 5910 5909 5908 5908 5907 5907 5907 5906 5906 5905 5905 5905 5904 5903 5903 5902 5902 5901 5901 5901 5901 5901 5902
5912 5912 5913 5913 5913 5913 5914 5914 5914 5914 5914 5914 5913 5913 5913 5912 5912 5911 5910 5910 5909 5908 5908 5907 5906 5906 5906 5905 5905 5905 5904 5904 5904 5903 5903 5902 5902 5902 5901 5901 5901 5901 5902
5911 5912 5912 5912 5912 5912 5913 5913 5913 5913 5913 5912 5912 5912 5911 5911 5910 5910 5909 5908 5908 5907 5906 5905 5905 5905 5904 5904 5904 5903 5903 5903 5903 5903 5902 5902 5902 5902 5902 5902 5902 5902 5903
5910 5911 5911 5911 5911 5911 5911 5911 5911 5911 5911 5911 5910 5910 5910 5909 5909 5908 5907 5907 5906 5905 5904 5904 5903 5903 5903 5902 5902 5902 5902 5901 5901 5902 5902 5902 5902 5902 5902 5902 5902 5903 5903
5909 5909 5909 5909 5910 5910 5909 5910 5910 5909 5909 5909 5909 5908 5908 5907 5907 5906 5905 5904 5903 5903 5902 5901 5901 5900 5900 5900 5900 5900 5900 5900 5900 5900 5901 5901 5901 5901 5902 5902 5902 5903 5903
5908 5908 5908 5908 5908 5908 5908 5908 5907 5907 5907 5907 5906 5906 5905 5905 5904 5903 5903 5902 5901 5900 5900 5899 5898 5898 5897 5897 5897 5898 5898 5898 5899 5899 5899 5899 5900 5900 5901 5901 5901 5902 5903
5906 5906 5906 5906 5906 5906 5906 5905 5905 5905 5905 5904 5904 5903 5902 5902 5901 5900 5900 5899 5898 5897 5896 5896 5895 5895 5894 5894 5894 5894 5895 5896 5896 5897 5897 5897 5898 5898 5899 5900 5900 5901 5902
5904 5904 5904 5904 5904 5904 5903 5903 5903 5902 5902 5901 5901 5900 5899 5898 5898 5897 5896 5895 5894 5893 5892 5892 5891 5891 5891 5891 5891 5891 5891 5893 5894 5894 5894 5895 5895 5896 5896 5897 5898 5899 5900
5902 5903 5902 5902 5902 5901 5901 5901 5900 5900 5899 5898 5897 5896 5895 5894 5894 5893 5892 5891 5890 5889 5888 5887 5887 5887 5887 5887 5887 5887 5887 5888 5890 5890 5891 5891 5891 5892 5893 5895 5896 5897 5898
5899 5900 5900 5900 5899 5899 5898 5898 5897 5896 5896 5895 5894 5893 5891 5890 5890 5889 5888 5887 5886 5885 5884 5883 5883 5883 5883 5883 5883 5882 5883 5884 5885 5886 5887 5887 5888 5889 5890 5891 5893 5894 5896
5896 5897 5897 5897 5896 5896 5895 5895 5894 5893 5892 5891 5890 5889 5888 5887 5886 5885 5884 5883 5882 5881 5880 5879 5879 5878 5878 5879 5878 5878 5878 5879 5881 5882 5882 5883 5884 5884 5886 5887 5889 5891 5892
5893 5894 5894 5894 5893 5893 5892 5892 5891 5890 5889 5888 5887 5886 5885 5883 5883 5882 5881 5880 5879 5877 5876 5875 5875 5875 5874 5874 5875 5874 5874 5875 5876 5877 5878 5878 5879 5880 5881 5883 5885 5887 5889
5890 5891 5891 5891 5890 5890 5889 5889 5888 5887 5886 5885 5884 5883 5882 5880 5880 5879 5878 5876 5875 5874 5873 5872 5871 5871 5871 5870 5870 5870 5870 5870 5871 5872 5873 5874 5875 5876 5877 5878 5880 5882 5884
5886 5887 5888 5887 5887 5886 5886 5886 5886 5885 5884 5882 5881 5880 5878 5877 5876 5875 5874 5872 5871 5870 5869 5868 5868 5867 5867 5866 5866 5866 5866 5866 5866 5867 5868 5869 5871 5872 5873 5874 5876 5878 5880
5883 5884 5884 5883 5883 5883 5883 5883 5883 5882 5881 5879 5878 5876 5875 5874 5873 5872 5870 5869 5868 5867 5866 5865 5864 5863 5863 5862 5862 5862 5862 5862 5862 5863 5863 5865 5866 5868 5869 5870 5872 5874 5876
5880 5880 5880 5880 5880 5881 5881 5881 5880 5878 5877 5876 5875 5873 5872 5870 5869 5868 5867 5865 5864 5863 5862 5861 5860 5859 5859 5858 5858 5858 5858 5858 5858 5858 5859 5860 5862 5863 5865 5866 5867 5869 5871
5877 5878 5878 5878 5879 5879 5879 5878 5877 5876 5875 5874 5872 5870 5869 5867 5866 5865 5863 5862 5860 5859 5858 5857 5856 5855 5854 5854 5854 5853 5853 5853 5853 5853 5854 5855 5857 5858 5859 5861 5862 5863 5865
5874 5875 5876 5877 5877 5877 5877 5876 5875 5874 5873 5871 5869 5868 5866 5865 5863 5861 5860 5858 5857 5856 5854 5853 5852 5851 5850 5850 5849 5849 5848 5848 5848 5848 5849 5850 5851 5853 5854 5855 5857 5858 5860
5872 5873 5874 5875 5875 5875 5874 5874 5873 5872 5870 5869 5867 5865 5863 5862 5860 5858 5857 5855 5854 5852 5851 5850 5849 5847 5847 5846 5845 5844 5844 5844 5844 5844 5844 5845 5846 5847 5848 5849 5851 5853 5854
5870 5872 5872 5873 5873 5873 5872 5872 5871 5870 5868 5867 5865 5863 5861 5859 5857 5855 5854 5852 5851 5849 5848 5846 5845 5844 5843 5842 5841 5840 5839 5839 5839 5839 5839 5839 5840 5841 5842 5843 5845 5846 5848
5869 5870 5871 5871 5870 5870 5870 5869 5869 5867 5866 5864 5863 5861 5859 5857 5855 5853 5851 5849 5848 5846 5844 5843 5841 5840 5839 5838 5837 5836 5835 5834 5834 5834 5833 5834 5834 5835 5836 5837 5838 5839 5841
5867 5868 5869 5869 5869 5869 5868 5868 5867 5865 5864 5862 5860 5858 5856 5854 5852 5850 5848 5846 5844 5842 5841 5839 5838 5836 5835 5833 5832 5831 5830 5829 5828 5828 5828 5827 5827 5828 5829 5830 5831 5832 5834
5866 5866 5867 5867 5867 5867 5867 5866 5864 5863 5861 5860 5858 5856 5854 5852 5849 5847 5845 5843 5841 5839 5837 5835 5833 5832 5830 5828 5827 5826 5825 5823 5822 5821 5821 5821 5821 5821 5821 5822 5823 5824 5825
5864 5865 5865 5865 5865 5865 5864 5863 5862 5861 5859 5857 5855 5853 5851 5849 5847 5845 5842 5839 5837 5835 5833 5831 5829 5827 5825 5823 5821 5819 5818 5817 5816 5815 5814 5813 5813 5813 5814 5814 5814 5816 5817